Showing default

YUNHAI 2-1F, 43915

Orbit data source: Space-Track

YUNHAI 2-1F, 43915 is a payload satellite owned by CASC (CN) in LEO that was launched on Sat, 29 Dec 2018 UTC via a CHANG ZHENG 2D/YZ-3 launch vehicle from the Jiuquan Satellite Launch Center, China (JSC). Payload-class satellites include a variety of spacecraft equipped with specific instruments for various scientific and technological missions. These include communications satellites like Starlink; space stations such as the ISS; scientific satellites like the Hubble; Earth observation satellites from companies like Planet Labs, Umbra, and HawkEye 360; GPS; miniature CubeSats for education and research; and military/defense satellites.

Loading next visibility...
Identifier
43915, 2018-112G
Orbit
LEO
Country
Flag of CNCN / PRC
Related business
Manufacturer
DFH Shenzhen
Mission
Operational Defense Meteo Radio Occ.
Bus & Motor
YH-2, Unknown motor
Mass
~100 kg wet, ~100 kg dry
Launch date (UTC)
2018-12-29 (7 years ago)
Launch vehicle
CHANG ZHENG 2D/YZ-3
Launch site
Jiuquan Satellite Launch Center, China (JSC)
Object type
Payload
Rocket body
Debris
Shape & HBR
Box + 2 Pan, 0.5 m
Radar Cross Section
0.166 m², Large (>1 m²)

Expand to show TLE details & history
Last TLE update: 13 hours ago

TLE from 13 hours ago
0 YUNHAI 2-1F
1 43915U 18112G   26124.81451310  .00000371  00000-0  20893-3 0  9999
2 43915  50.0118  51.7569 0006865 176.3135 183.7832 14.29012381382100
Epoch: 2026-05-04T19:32Z
TLE epoch observation values (Epoch: 2026-05-04T19:32:53.931Z)
Latitude
-0.00003°
Longitude
-104.16615°
Altitude
800.479 km
Speed
7.452 km/s
True Right ascension
03h 27m 01s
True Declination
0° 00' 00"
Sunlit
Object was in daylight at epoch
Visualization orbit readout
Latitude
Unknown
Longitude
Unknown
Altitude
Unknown
Speed
Unknown
Apparent Right ascension
Unknown
Apparent Declination
Unknown
Sunlit
N/A
Visualization observer readout
Local Sidereal Time
16:34:12
Azimuth
Unknown
Elevation
Unknown
Doppler factor
Unknown
Orbital elements
Apogee altitude
800.697 km
Perigee altitude
790.847 km
Semi-major axis
7,173.909 km
Eccentricity
0.00069
Inclination
50.0118°
RAAN
51.7569°
Arg. of periapsis
176.3135°
True anomaly
183.77801°
Mean anomaly
183.7832°
Eccentric anomaly
183.78061°
Mean motion
3.57198 °/min
Orbital period
100.78 mins
BSTAR
0.00020893
Loading maneuver chart data...
Computing Atmospheric mass density...
Loading historical data...
Loading historical data...
Loading historical data...
Loading historical data...
Loading historical data...
Loading historical data...
Loading historical data...

Documentation

Showing up to 5 results
|